EW7349 Weather Reports


time (UTC)temp
C
wind
direction
speed
KPH
gust
KPH
rain 1hr
cm
rain 24hr
cm
rain mn
cm
humidity
%
barometer
mb
20260831141544 25 98 0.0 9.7 0.00 0.00 0.00 83 1019.6
20260831141045 25 113 0.0 9.7 0.00 0.00 0.00 83 1019.6
20260831140545 25 65 0.0 6.4 0.00 0.00 0.00 83 1019.5
20260831140045 25 96 0.0 4.8 0.00 0.00 0.00 84 1019.3
20260831135807 25 107 1.6 8.0 0.00 0.00 0.00 83 1019.4
20260831135306 25 154 1.6 11.3 0.00 0.00 0.00 83 1019.5
20260831134544 25 300 1.6 11.3 0.00 0.00 0.00 84 1019.5
20260831134043 25 85 1.6 6.4 0.00 0.00 0.00 85 1019.6
20260831133544 24 107 1.6 6.4 0.00 0.00 0.00 86 1019.5
20260831133304 24 111 1.6 4.8 0.00 0.00 0.00 88 1019.5
20260831132542 23 114 1.6 9.7 0.00 0.00 0.00 91 1019.6
20260831132041 23 96 1.6 9.7 0.00 0.00 0.00 94 1019.5
20260831131534 22 109 1.6 6.4 0.00 0.00 0.00 95 1019.6
20260831131253 22 51 1.6 4.8 0.00 0.00 0.00 95 1019.7
20260831130521 22 101 1.6 4.8 0.00 0.00 0.00 95 1019.7
20260831130016 22 80 0.0 4.8 0.00 0.00 0.00 95 1019.8
20260831125509 22 44 1.6 4.8 0.00 0.00 0.00 95 1019.7
20260831125003 21 55 1.6 4.8 0.00 0.00 0.00 95 1019.7
20260831124720 21 55 0.0 3.2 0.00 0.00 0.00 95 1019.6
20260831123951 21 302 0.0 3.2 0.00 0.00 0.00 95 1019.7
20260831123445 21 30 0.0 3.2 0.00 0.00 0.00 95 1019.6
20260831122939 21 80 0.0 1.6 0.00 0.00 0.00 94 1019.6
20260831122433 21 57 0.0 1.6 0.00 0.00 0.00 94 1019.6
20260831121927 21 57 0.0 3.2 0.00 0.00 0.00 94 1019.5
20260831121908 21 68 0.0 4.8 0.00 0.00 0.00 94 1019.5
20260831120914 21 88 0.0 4.8 0.00 0.00 0.00 94 1019.6
20260831120409 21 48 0.0 1.6 0.00 0.00 0.00 94 1019.5
20260831115903 21 48 0.0 1.6 0.00 0.00 0.00 94 1019.5
20260831115357 21 65 0.0 1.6 0.00 0.00 0.00 94 1019.5
20260831114851 20 65 0.0 1.6 0.00 0.00 0.00 94 1019.4
20260831114830 20 65 0.0 1.6 0.00 0.00 0.00 94 1019.3
20260831113839 20 65 0.0 1.6 0.00 0.00 0.00 94 1019.4
20260831113333 20 65 0.0 3.2 0.00 0.00 0.00 94 1019.4
20260831112828 20 5 0.0 3.2 0.00 0.00 0.00 93 1019.4
20260831112321 20 243 0.0 1.6 0.00 0.00 0.00 93 1019.3
20260831111814 20 243 0.0 0.0 0.00 0.00 0.00 93 1019.1
20260831111309 21 243 0.0 0.0 0.00 0.00 0.00 93 1019.1
20260831110803 21 243 0.0 0.0 0.00 0.00 0.00 93 1018.9
20260831110257 21 243 0.0 1.6 0.00 0.00 0.00 93 1018.9
20260831110021 21 243 0.0 1.6 0.00 0.00 0.00 93 1018.8
20260831105245 21 243 0.0 1.6 0.00 0.00 0.00 93 1018.7
20260831104739 21 243 0.0 0.0 0.00 0.00 0.00 93 1018.6
20260831104233 21 243 0.0 0.0 0.00 0.00 0.00 93 1018.5
20260831103728 21 243 0.0 0.0 0.00 0.00 0.00 93 1018.5
20260831103222 21 243 0.0 0.0 0.00 0.00 0.00 93 1018.5
20260831102909 21 243 0.0 0.0 0.00 0.00 0.00 93 1018.5
20260831102756 21 243 0.0 0.0 0.00 0.00 0.00 93 1018.4
20260831101920 21 243 0.0 0.0 0.00 0.00 0.00 93 1018.5
20260831101157 21 243 0.0 0.0 0.00 0.00 0.00 93 1018.5
20260831100652 21 243 0.0 1.6 0.00 0.00 0.00 93 1018.5
20260831100145 21 243 0.0 1.6 0.00 0.00 0.00 93 1018.6
20260831095640 21 221 0.0 0.0 0.00 0.00 0.00 93 1018.6
20260831095134 21 221 0.0 0.0 0.00 0.00 0.00 93 1018.6
20260831094627 21 221 0.0 1.6 0.00 0.00 0.00 93 1018.6
20260831094122 21 221 0.0 1.6 0.00 0.00 0.00 93 1018.5
20260831093616 21 221 0.0 1.6 0.00 0.00 0.00 93 1018.4
20260831093109 21 221 0.0 0.0 0.00 0.00 0.00 93 1018.3
20260831092828 21 221 0.0 0.0 0.00 0.00 0.00 93 1018.4
20260831092146 21 221 0.0 0.0 0.00 0.00 0.00 93 1018.4
20260831092104 21 221 0.0 0.0 0.00 0.00 0.00 93 1018.4
20260831091829 21 221 0.0 0.0 0.00 0.00 0.00 93 1018.3
20260831090602 21 221 0.0 0.0 0.00 0.00 0.00 93 1018.2
20260831090104 21 221 0.0 0.0 0.00 0.00 0.00 92 1018.3
20260831085600 21 221 0.0 0.0 0.00 0.00 0.00 92 1018.3
20260831085059 21 221 0.0 0.0 0.00 0.00 0.00 92 1018.3
20260831084558 21 221 0.0 0.0 0.00 0.00 0.00 92 1018.3
20260831084056 21 221 0.0 0.0 0.00 0.00 0.00 92 1018.3
20260831083558 21 221 0.0 0.0 0.00 0.00 0.00 92 1018.2
20260831083319 21 221 0.0 1.6 0.00 0.00 0.00 92 1018.2
20260831082556 21 221 0.0 1.6 0.00 0.00 0.00 92 1018.2
20260831082055 21 221 0.0 0.0 0.00 0.00 0.00 92 1018.3
20260831081554 21 221 0.0 0.0 0.00 0.00 0.00 92 1018.3
20260831081056 21 221 0.0 0.0 0.00 0.00 0.00 92 1018.3
20260831080554 21 221 0.0 0.0 0.00 0.00 0.00 91 1018.3
20260831080054 21 221 0.0 0.0 0.00 0.00 0.00 91 1018.2
20260831075556 21 221 0.0 0.0 0.00 0.00 0.00 91 1018.2
20260831075050 21 221 0.0 0.0 0.00 0.00 0.00 92 1018.2
20260831074543 21 221 0.0 0.0 0.00 0.00 0.00 91 1018.2
20260831074037 21 221 0.0 0.0 0.00 0.00 0.00 91 1018.2
20260831073537 21 221 0.0 0.0 0.00 0.00 0.00 91 1018.2
20260831073034 21 221 0.0 0.0 0.00 0.00 0.00 91 1018.1
20260831072534 21 221 0.0 0.0 0.00 0.00 0.00 91 1018.1
20260831072035 21 221 0.0 0.0 0.00 0.00 0.00 91 1018.1
20260831071532 21 221 0.0 0.0 0.00 0.00 0.00 91 1018.0
20260831071306 21 221 0.0 0.0 0.00 0.00 0.00 91 1018.1
20260831070751 21 221 0.0 1.6 0.00 0.00 0.00 91 1018.1
20260831070030 21 221 0.0 1.6 0.00 0.00 0.00 91 1018.1
20260831065531 21 221 0.0 0.0 0.00 0.00 0.00 91 1018.1
20260831065028 21 221 0.0 0.0 0.00 0.00 0.00 91 1018.1
20260831064528 21 221 0.0 0.0 0.00 0.00 0.00 91 1018.2
20260831064027 21 221 0.0 0.0 0.00 0.00 0.00 91 1018.2
20260831063529 21 221 0.0 0.0 0.00 0.00 0.00 91 1018.2
20260831063025 22 221 0.0 0.0 0.00 0.00 0.00 91 1018.3
20260831062524 22 221 0.0 0.0 0.00 0.00 0.00 91 1018.3
20260831062247 22 221 0.0 0.0 0.00 0.00 0.00 90 1018.3
20260831061524 22 221 0.0 0.0 0.00 0.00 0.00 90 1018.3
20260831061025 22 221 0.0 0.0 0.00 0.00 0.00 90 1018.4
20260831060525 22 221 0.0 0.0 0.00 0.00 0.00 90 1018.5
20260831060023 22 221 0.0 0.0 0.00 0.00 0.00 90 1018.5
20260831055754 22 221 0.0 0.0 0.00 0.00 0.00 90 1018.5
20260831055025 22 221 0.0 0.0 0.00 0.00 0.00 90 1018.6
20260831055010 22 221 0.0 0.0 0.00 0.00 0.00 90 1018.7
20260831054020 22 221 0.0 0.0 0.00 0.00 0.00 89 1018.7
20260831053522 22 221 0.0 1.6 0.00 0.00 0.00 89 1018.7
20260831053021 22 221 0.0 1.6 0.00 0.00 0.00 89 1018.7
20260831052520 22 221 0.0 0.0 0.00 0.00 0.00 89 1018.8
20260831052021 22 221 0.0 0.0 0.00 0.00 0.00 89 1018.7
20260831051523 22 221 0.0 0.0 0.00 0.00 0.00 89 1018.8
20260831051021 22 221 0.0 0.0 0.00 0.00 0.00 89 1018.7
20260831050522 22 221 0.0 0.0 0.00 0.00 0.00 89 1018.8
20260831050020 22 221 0.0 0.0 0.00 0.00 0.00 89 1018.8
20260831045526 22 221 0.0 0.0 0.00 0.00 0.00 89 1018.8
20260831045020 22 221 0.0 0.0 0.00 0.00 0.00 89 1018.9
20260831044522 22 221 0.0 0.0 0.00 0.00 0.00 88 1018.9
20260831044237 22 221 0.0 0.0 0.00 0.00 0.00 89 1019.0
20260831043517 22 221 0.0 0.0 0.00 0.00 0.00 88 1019.0
20260831043232 22 221 0.0 3.2 0.00 0.00 0.00 88 1018.9
20260831042730 23 221 0.0 3.2 0.00 0.00 0.00 88 1018.9
20260831042012 23 221 0.0 1.6 0.00 0.00 0.00 88 1018.9
20260831041510 23 221 0.0 1.6 0.00 0.00 0.00 88 1018.9
20260831041007 23 221 0.0 1.6 0.00 0.00 0.00 87 1019.0
20260831040505 23 221 0.0 0.0 0.00 0.00 0.00 88 1019.0
20260831035959 23 221 0.0 0.0 0.00 0.00 0.00 87 1018.9
20260831035500 23 221 0.0 0.0 0.00 0.00 0.00 87 1018.9
20260831035231 23 221 0.0 0.0 0.00 0.00 0.00 87 1018.9
20260831034500 23 221 0.0 0.0 0.00 0.00 0.00 87 1018.9
20260831034000 23 221 0.0 0.0 0.00 0.00 0.00 87 1018.9
20260831033723 23 221 0.0 0.0 0.00 0.00 0.00 87 1019.0
20260831033000 23 221 0.0 0.0 0.00 0.00 0.00 86 1019.0
20260831032500 23 221 0.0 0.0 0.00 0.00 0.00 86 1019.1
20260831032001 23 221 0.0 0.0 0.00 0.00 0.00 86 1019.1
20260831031459 23 221 0.0 0.0 0.00 0.00 0.00 86 1019.1
20260831031212 23 221 0.0 0.0 0.00 0.00 0.00 86 1019.3
20260831031054 23 221 0.0 0.0 0.00 0.00 0.00 86 1019.2
20260831030000 23 221 0.0 0.0 0.00 0.00 0.00 86 1019.2
20260831025500 23 221 0.0 0.0 0.00 0.00 0.00 86 1019.3
20260831025002 23 221 0.0 0.0 0.00 0.00 0.00 86 1019.5
20260831024459 23 221 0.0 0.0 0.00 0.00 0.00 86 1019.5
20260831024001 23 221 0.0 0.0 0.00 0.00 0.00 86 1019.5
20260831023500 23 221 0.0 0.0 0.00 0.00 0.00 85 1019.5
20260831023218 23 221 0.0 3.2 0.00 0.00 0.00 85 1019.6
20260831022503 23 221 0.0 3.2 0.00 0.00 0.00 85 1019.7
20260831021954 23 181 0.0 3.2 0.00 0.00 0.00 84 1019.8
20260831021449 24 350 0.0 0.0 0.00 0.00 0.00 84 1019.7
20260831020943 24 55 0.0 0.0 0.00 0.00 0.00 84 1019.6
20260831020437 24 55 0.0 0.0 0.00 0.00 0.00 84 1019.6
20260831015931 24 55 0.0 0.0 0.00 0.00 0.00 84 1019.6
20260831015431 24 55 0.0 0.0 0.00 0.00 0.00 84 1019.6
20260831014942 24 55 0.0 0.0 0.00 0.00 0.00 83 1019.6
20260831014429 24 55 0.0 0.0 0.00 0.00 0.00 83 1019.6
20260831014152 24 55 0.0 0.0 0.00 0.00 0.00 83 1019.5
20260831013427 24 55 0.0 0.0 0.00 0.00 0.00 83 1019.5
20260831013155 24 55 0.0 0.0 0.00 0.00 0.00 82 1019.6
20260831012426 24 55 0.0 0.0 0.00 0.00 0.00 82 1019.6
20260831011927 25 55 0.0 0.0 0.00 0.00 0.00 82 1019.7
20260831011425 25 55 0.0 0.0 0.00 0.00 0.00 81 1019.8
20260831010926 25 55 0.0 0.0 0.00 0.00 0.00 80 1019.7
20260831010653 25 55 0.0 0.0 0.00 0.00 0.00 80 1019.7
20260831010130 25 55 0.0 0.0 0.00 0.00 0.00 79 1019.5
20260831010019 25 55 0.0 0.0 0.00 0.00 0.00 80 1019.6
20260831004923 25 55 0.0 0.0 0.00 0.00 0.00 79 1019.3
20260831004422 25 55 0.0 0.0 0.00 0.00 0.00 79 1019.3
20260831003920 25 55 0.0 0.0 0.00 0.00 0.00 78 1019.2
20260831003420 25 55 0.0 0.0 0.00 0.00 0.00 78 1019.2
20260831002914 25 55 0.0 0.0 0.00 0.00 0.00 78 1019.2
20260831002637 26 55 0.0 0.0 0.00 0.00 0.00 78 1019.1
20260831001902 26 55 0.0 1.6 0.00 0.00 0.00 77 1019.1
20260831001618 26 55 0.0 1.6 0.00 0.00 0.00 77 1019.1
20260831000850 26 37 0.0 0.0 0.00 0.00 0.00 77 1019.2
20260831000611 26 37 0.0 3.2 0.00 0.00 0.00 76 1019.1
20260830235839 26 37 0.0 3.2 0.00 0.00 0.00 76 1019.0
20260830235333 26 312 0.0 1.6 0.00 0.00 0.00 75 1019.0
20260830234827 26 236 0.0 1.6 0.00 0.00 0.00 75 1019.0
20260830234322 26 236 0.0 3.2 0.00 0.00 0.00 75 1019.1
20260830233814 26 35 0.0 3.2 0.00 0.00 0.00 74 1019.1
20260830233309 26 331 0.0 3.2 0.00 0.00 0.00 73 1019.2
20260830232802 26 304 0.0 3.2 0.00 0.00 0.00 73 1019.2
20260830232256 27 315 0.0 3.2 0.00 0.00 0.00 72 1019.1
20260830231750 27 315 1.6 6.4 0.00 0.00 0.00 71 1019.0
20260830231244 27 265 1.6 8.0 0.00 0.00 0.00 70 1018.9
20260830230738 27 248 1.6 8.0 0.00 0.00 0.00 70 1018.8
20260830230459 27 125 0.0 4.8 0.00 0.00 0.00 71 1018.9
20260830225958 27 302 0.0 3.2 0.00 0.00 0.00 72 1018.8
20260830225221 28 242 1.6 4.8 0.00 0.00 0.00 72 1018.8
20260830224714 28 288 1.6 6.4 0.00 0.00 0.00 72 1018.9
20260830224434 28 271 1.6 6.4 0.00 0.00 0.00 72 1018.9
20260830223703 28 238 1.6 6.4 0.00 0.00 0.00 72 1018.9
20260830223156 28 178 0.0 6.4 0.00 0.00 0.00 73 1018.7
20260830222650 28 258 0.0 0.0 0.00 0.00 0.00 73 1018.7
20260830222144 28 258 0.0 0.0 0.00 0.00 0.00 73 1018.5
20260830221638 28 258 0.0 0.0 0.00 0.00 0.00 72 1018.5
20260830221132 28 258 0.0 0.0 0.00 0.00 0.00 72 1018.5
20260830220848 29 258 0.0 0.0 0.00 0.00 0.00 71 1018.5
20260830220121 29 258 0.0 0.0 0.00 0.00 0.00 71 1018.4
20260830215613 29 258 0.0 0.0 0.00 0.00 0.00 70 1018.4
20260830215108 29 258 0.0 0.0 0.00 0.00 0.00 70 1018.5
20260830214601 30 258 0.0 0.0 0.00 0.00 0.00 69 1018.5
20260830214101 30 259 0.0 0.0 0.00 0.00 0.00 69 1018.5
20260830213816 30 259 0.0 1.6 0.00 0.00 0.00 68 1018.6
20260830213053 30 253 0.0 1.6 0.00 0.00 0.00 69 1018.6
20260830212553 30 274 0.0 4.8 0.00 0.00 0.00 68 1018.6
20260830212052 30 274 1.6 4.8 0.00 0.00 0.00 67 1018.5
20260830211550 30 118 1.6 4.8 0.00 0.00 0.00 67 1018.5
20260830211048 29 221 1.6 3.2 0.00 0.00 0.00 69 1018.5
20260830210547 29 26 1.6 4.8 0.00 0.00 0.00 70 1018.5
20260830210047 29 223 1.6 4.8 0.00 0.00 0.00 68 1018.4
20260830205550 30 219 1.6 6.4 0.00 0.00 0.00 68 1018.4
20260830205046 30 240 1.6 8.0 0.00 0.00 0.00 64 1018.4
20260830204810 30 226 1.6 8.0 0.00 0.00 0.00 64 1018.3
20260830204045 30 115 1.6 4.8 0.00 0.00 0.00 65 1018.4
20260830203544 30 284 3.2 8.0 0.00 0.00 0.00 66 1018.4
20260830203314 30 147 3.2 8.0 0.00 0.00 0.00 63 1018.4
20260830202542 31 74 1.6 4.8 0.00 0.00 0.00 63 1018.5
20260830202043 31 273 1.6 9.7 0.00 0.00 0.00 65 1018.6
20260830201802 30 186 1.6 9.7 0.00 0.00 0.00 64 1018.7
20260830201042 30 266 1.6 6.4 0.00 0.00 0.00 62 1018.7
20260830200543 31 287 1.6 4.8 0.00 0.00 0.00 63 1018.7
20260830200300 31 350 1.6 9.7 0.00 0.00 0.00 60 1018.8
20260830195529 31 261 1.6 9.7 0.00 0.00 0.00 61 1018.8
20260830195024 31 277 3.2 11.3 0.00 0.00 0.00 61 1019.0
20260830194521 31 273 3.2 11.3 0.00 0.00 0.00 59 1019.0
20260830194023 31 300 3.2 11.3 0.00 0.00 0.00 59 1019.0
20260830193522 31 115 3.2 11.3 0.00 0.00 0.00 61 1019.0
20260830193019 31 265 3.2 11.3 0.00 0.00 0.00 59 1019.1
20260830192738 31 194 3.2 11.3 0.00 0.00 0.00 61 1019.1
20260830192019 31 180 3.2 11.3 0.00 0.00 0.00 61 1019.2
20260830191746 31 157 3.2 11.3 0.00 0.00 0.00 62 1019.2
20260830191241 31 231 3.2 9.7 0.00 0.00 0.00 59 1019.2
20260830190519 32 114 1.6 6.4 0.00 0.00 0.00 60 1019.3
20260830190019 31 238 1.6 6.4 0.00 0.00 0.00 62 1019.5
20260830185519 31 342 1.6 6.4 0.00 0.00 0.00 62 1019.6
20260830185018 31 30 1.6 6.4 0.00 0.00 0.00 61 1019.8
20260830184519 31 256 3.2 11.3 0.00 0.00 0.00 63 1020.0
20260830184019 31 263 3.2 11.3 0.00 0.00 0.00 63 1020.0
20260830183520 31 140 3.2 6.4 0.00 0.00 0.00 63 1020.1
20260830183020 31 207 1.6 6.4 0.00 0.00 0.00 62 1020.2
20260830182738 31 215 1.6 4.8 0.00 0.00 0.00 61 1020.3
20260830182019 31 131 1.6 8.0 0.00 0.00 0.00 63 1020.4
20260830181520 30 242 3.2 12.9 0.00 0.00 0.00 65 1020.5
20260830181019 30 291 3.2 12.9 0.00 0.00 0.00 63 1020.5
20260830180742 30 107 3.2 9.7 0.00 0.00 0.00 67 1020.7
20260830180019 30 267 3.2 12.9 0.00 0.00 0.00 68 1020.7
20260830175520 30 137 3.2 12.9 0.00 0.00 0.00 65 1020.9
20260830175020 30 113 1.6 9.7 0.00 0.00 0.00 67 1021.0
20260830174519 30 323 3.2 12.9 0.00 0.00 0.00 65 1021.1
20260830174019 29 261 3.2 12.9 0.00 0.00 0.00 69 1021.0
20260830173519 30 205 3.2 9.7 0.00 0.00 0.00 66 1021.1
20260830173019 29 254 3.2 11.3 0.00 0.00 0.00 67 1021.2
20260830172519 28 225 3.2 12.9 0.00 0.00 0.00 69 1021.3
20260830172018 28 315 4.8 12.9 0.00 0.00 0.00 70 1021.4
20260830171518 28 294 3.2 11.3 0.00 0.00 0.00 69 1021.4
20260830171021 28 207 3.2 11.3 0.00 0.00 0.00 71 1021.5
20260830170518 28 293 3.2 11.3 0.00 0.00 0.00 69 1021.6
20260830170017 28 146 3.2 12.9 0.00 0.00 0.00 73 1021.7
20260830165518 28 239 3.2 12.9 0.00 0.00 0.00 70 1021.8
20260830165018 28 161 3.2 9.7 0.00 0.00 0.00 71 1021.9
20260830164959 27 318 3.2 9.7 0.00 0.00 0.00 70 1021.9
20260830164240 28 227 3.2 11.3 0.00 0.00 0.00 71 1022.0
20260830163513 27 222 3.2 11.3 0.00 0.00 0.00 72 1022.0
20260830163013 27 20 3.2 14.5 0.00 0.00 0.00 71 1022.1
20260830162513 27 290 3.2 14.5 0.00 0.00 0.00 74 1022.2
20260830162013 26 260 3.2 12.9 0.00 0.00 0.00 77 1022.2
20260830161513 26 209 3.2 12.9 0.00 0.00 0.00 75 1022.2
20260830161012 27 263 3.2 14.5 0.00 0.00 0.00 74 1022.2
20260830160748 27 122 4.8 14.5 0.00 0.00 0.00 76 1022.2
20260830160014 27 280 3.2 12.9 0.00 0.00 0.00 75 1022.2
20260830155513 26 153 3.2 9.7 0.00 0.00 0.00 76 1022.2
20260830155007 26 171 3.2 14.5 0.00 0.00 0.00 76 1022.2
20260830154501 26 217 3.2 14.5 0.00 0.00 0.00 77 1022.2
20260830153956 27 233 3.2 9.7 0.00 0.00 0.00 76 1022.2
20260830153456 27 251 3.2 11.3 0.00 0.00 0.00 74 1022.2
20260830152956 27 355 3.2 11.3 0.00 0.00 0.00 75 1022.2
20260830152457 27 140 3.2 12.9 0.00 0.00 0.00 74 1022.2
20260830151958 27 136 3.2 12.9 0.00 0.00 0.00 79 1022.1
20260830151456 26 274 3.2 11.3 0.00 0.00 0.00 81 1022.2
20260830150954 25 279 3.2 11.3 0.00 0.00 0.00 81 1022.2
20260830150455 25 263 3.2 11.3 0.00 0.00 0.00 80 1022.2
20260830145954 26 222 1.6 11.3 0.00 0.00 0.00 80 1022.2
20260830145454 25 97 1.6 9.7 0.00 0.00 0.00 82 1022.1
20260830144954 25 138 3.2 9.7 0.00 0.00 0.00 84 1022.2
20260830144451 25 192 3.2 11.3 0.00 0.00 0.00 85 1022.2
20260830143951 25 180 1.6 11.3 0.00 0.00 0.00 85 1022.2
20260830143451 24 263 1.6 11.3 0.00 0.00 0.00 86 1022.2
20260830142951 24 210 1.6 11.3 0.00 0.00 0.00 86 1022.3
20260830142451 25 306 0.0 4.8 0.00 0.00 0.00 87 1022.3
20260830141950 24 294 1.6 8.0 0.00 0.00 0.00 88 1022.3